Погода в Султанабаде

Узбекистан     40°45′58″N   72°58′24″E
темп.,
°C
ветер,
м/с
пор.,
м/с
влажн.,
%
обл.,
%
осадки,
мм/ч
давл.,
гПа
погр.,
м
27 февраля, сб
сб2723:00−4в01565 0.0 1033118
02:00−4вюв12486 0.0 1031103
05:00−4вюв123841 0.0 1031138
08:00−6в2256100 0.0 103180
11:00−2з0044100 0.0 1028410
14:00−1ююв1139100 0.0 1028717
17:00−1всв2360100 0.1 1032210
20:00−3всв3470100 0.1 1037116
28 февраля, вс
вс2823:00−4вюв226785 0.1 103830
02:00−5юв22590 0.0 103735
05:00−5вюв22570 0.0 103643
08:00−4в22580 0.0 103483
11:00+1всв11470 0.0 1028352
14:00+3юв11460 0.0 1025474
17:00+2в22570 0.0 1026126
20:00−1в23650 0.0 102941
1 марта, пн
пн123:00−1в22590 0.0 103028
02:00−1в22520 0.0 102924
05:00−1в22518 0.0 102824
08:000в224983 0.0 102874
11:00+5св123873 0.0 1024296
14:00+9в113322 0.0 1022466
17:00+7всв114811 0.0 1023128
20:00+3в22580 0.0 102724
2 марта, вт
вт223:00+2в22530 0.0 102826
02:00+2вюв22470 0.0 102923
05:00+2в234543 0.0 102828
08:00+4в2344100 0.0 102850
11:00+9всв1133100 0.0 1025276
14:00+11с012999 0.0 1022512
17:00+10юв1138100 0.0 102236
20:00+7вюв2248100 0.0 102422
3 марта, ср
ср323:00+6в2350100 0.0 102440
02:00+5в1249100 0.0 102322
05:00+5юв124794 0.0 102322
08:00+6вюв224798 0.0 102345
11:00+10с113599 0.0 1020531
14:00+11ссз1131100 0.0 10171080
17:00+11сз1133100 0.0 1017890
20:00+8зсз1247100 0.0 102034